Location: Camerons Lookout
(40.9833°S, 175.9333°E)
Time: 08:10:47
(UTC+00:00)

Cosmos 2084 Rocket - Pass Details

Date: 14 January 2026
Orbit: 541 x 571 km, 62.8° (Epoch: 16 February)

Event Time Altitude Azimuth Distance (km) Brightness Sun altitude
Rises 08:26:45 0° 221° (SW) 2,747 8.8 -6.8°
Reaches altitude 10° 08:29:02 10° 225° (SW) 1,842 7.7 -7.1°
Maximum altitude 08:33:03 51° 301° (WNW) 697 4.0 -7.7°
Drops below altitude 10° 08:37:00 10° 17° (NNE) 1,811 5.5 -8.3°
Enters shadow 08:37:43 - 19° (NNE) 2,092 5.8 -8.4°
